Location: T�bingen+AIT
(48.5342°N, 9.0700°E)
Time: 19:30:48
(UTC+01:00)

Cosmos 332 Rocket - Pass Details

Date: 14 September 2017
Orbit: 683 x 704 km, 74.0° (Epoch: 22 November)

Event Time Altitude Azimuth Distance (km) Brightness Sun altitude
Rises 20:46:55 0° 179° (S) 3,076 6.9 -11.9°
Reaches altitude 10° 20:49:20 10° 172° (S) 2,161 6.1 -12.3°
Maximum altitude 20:53:51 39° 104° (ESE) 1,046 4.2 -13.0°
Drops below altitude 10° 20:58:22 10° 36° (NE) 2,165 6.2 -13.7°
Sets 21:00:48 0° 29° (NNE) 3,083 7.1 -14.1°
